0 HST 1 20580U 90037B 25287.46709332 .00008777 00000-0 31451-3 0 9998 2 20580 28.4696 315.5873 0001769 297.5164 62.5251 15.26910297750927 0 ISS (ZARYA) 1 25544U 98067A 25288.29939280 .00010825 00000-0 20343-3 0 9998 2 25544 51.6325 71.7910 0004132 294.0373 66.0183 15.49128438533793 0 CXO 1 25867U 99040B 25288.43817974 .00000826 00000-0 00000-0 0 9994 2 25867 51.9505 124.6447 8239156 310.6333 0.0894 0.37806235 16390